Weather History for Venice, FL

Change the Weather History Date:

Tuesday, November 5, 2013

  Actual Average Record
Temperature  
Mean Temperature 75 °F -  
Max Temperature 84 °F 79 °F 89 °F (1959)
Min Temperature 66 °F 59 °F 40 °F (1955)
Cooling Degree Days 10    
Growing Degree Days 25 (Base 50)    
Moisture  
Dew Point 66 °F    
Average Humidity 77    
Maximum Humidity 94    
Minimum Humidity 55    
Precipitation  
Precipitation 0.00 in - - ()
Sea Level Pressure  
Sea Level Pressure 30.08 in    
Wind  
Wind Speed 14 mph (ENE)    
Max Wind Speed 20 mph    
Max Gust Speed 29 mph    
Visibility 10 miles    
Events      
Averages and records for this station are not official NWS values.
T = Trace of Precipitation, MM = Missing Value Source: NWS Daily Summary

Daily Weather History Graph

Daily Weather History Graph

Search for Another Location

Airport:

Trip Planner

Search our weather history database for the weather conditions in past years. The results will help you decide how hot, cold, wet, or windy it might be!

Date:

Astronomy

Nov. 05, 2013 Rise Set
Actual Time 6:42 AM EST 5:43 PM EST
Civil Twilight 6:18 AM EST 6:07 PM EST
Nautical Twilight 5:50 AM EST 6:35 PM EST
Astronomical Twilight 5:23 AM EST 7:02 PM EST
Moon 8:49 AM EST (11/5) 7:51 PM EST (11/5)
Length of Visible Light 11h 49m
Length of Day
11h 01m
Waxing Crescent, 6% of the Moon is Illuminated
Nov 5
Waxing Crescent
Nov 10
First Quarter
Nov 17
Full
Nov 25
Last Quarter
Dec 2
New

Hourly Weather History & Observations

Time (EST) Temp. Heat Index Dew Point Humidity Pressure Visibility Wind Dir Wind Speed Gust Speed Precip Events Conditions
12:15 AM 68.0 °F - 60.8 °F 78% 30.11 in 10.0 mi NE 15.0 mph - N/A   Clear
12:35 AM 68.0 °F - 60.8 °F 78% 30.11 in 10.0 mi ENE 15.0 mph 23.0 mph N/A   Clear
12:55 AM 68.0 °F - 62.6 °F 83% 30.11 in 10.0 mi ENE 13.8 mph 23.0 mph N/A   Clear
1:15 AM 68.0 °F - 62.6 °F 83% 30.10 in 10.0 mi ENE 17.3 mph 25.3 mph N/A   Clear
1:35 AM 68.0 °F - 62.6 °F 83% 30.10 in 10.0 mi NE 17.3 mph 26.5 mph N/A   Clear
1:55 AM 68.0 °F - 62.6 °F 83% 30.09 in 10.0 mi NE 18.4 mph 24.2 mph N/A   Clear
2:15 AM 68.0 °F - 62.6 °F 83% 30.08 in 10.0 mi ENE 15.0 mph - N/A   Clear
2:35 AM 68.0 °F - 62.6 °F 83% 30.08 in 10.0 mi ENE 12.7 mph 19.6 mph N/A   Clear
2:55 AM 68.0 °F - 62.6 °F 83% 30.08 in 10.0 mi NE 17.3 mph - N/A   Clear
3:15 AM 66.2 °F - 62.6 °F 88% 30.08 in 10.0 mi NE 17.3 mph - N/A   Clear
3:35 AM 66.2 °F - 62.6 °F 88% 30.07 in 10.0 mi NE 16.1 mph 24.2 mph N/A   Clear
3:55 AM 66.2 °F - 62.6 °F 88% 30.08 in 10.0 mi NE 12.7 mph 17.3 mph N/A   Clear
4:15 AM 66.2 °F - 62.6 °F 88% 30.08 in 10.0 mi NE 13.8 mph 20.7 mph N/A   Clear
4:35 AM 66.2 °F - 64.4 °F 94% 30.08 in 10.0 mi NE 12.7 mph 18.4 mph N/A   Clear
4:55 AM 66.2 °F - 62.6 °F 88% 30.08 in 10.0 mi NE 10.4 mph 17.3 mph N/A   Partly Cloudy
5:15 AM 66.2 °F - 62.6 °F 88% 30.08 in 10.0 mi NE 11.5 mph - N/A   Clear
5:35 AM 66.2 °F - 62.6 °F 88% 30.09 in 10.0 mi NE 11.5 mph - N/A   Clear
5:55 AM 66.2 °F - 62.6 °F 88% 30.09 in 10.0 mi NE 12.7 mph 17.3 mph N/A   Clear
6:15 AM 66.2 °F - 64.4 °F 94% 30.09 in 10.0 mi NE 12.7 mph - N/A   Clear
6:35 AM 66.2 °F - 64.4 °F 94% 30.09 in 10.0 mi NE 12.7 mph 20.7 mph N/A   Partly Cloudy
6:55 AM 66.2 °F - 64.4 °F 94% 30.09 in 10.0 mi NE 13.8 mph - N/A   Clear
7:15 AM 66.2 °F - 64.4 °F 94% 30.10 in 10.0 mi NE 13.8 mph - N/A   Clear
7:35 AM 68.0 °F - 64.4 °F 88% 30.10 in 10.0 mi NE 15.0 mph - N/A   Clear
7:55 AM 68.0 °F - 64.4 °F 88% 30.10 in 10.0 mi NE 15.0 mph - N/A   Clear
8:15 AM 69.8 °F - 64.4 °F 83% 30.11 in 10.0 mi ENE 15.0 mph - N/A   Partly Cloudy
8:35 AM 73.4 °F - 66.2 °F 78% 30.11 in 10.0 mi ENE 15.0 mph 21.9 mph N/A   Mostly Cloudy
8:55 AM 73.4 °F - 66.2 °F 78% 30.11 in 10.0 mi ENE 17.3 mph 20.7 mph N/A   Mostly Cloudy
9:15 AM 73.4 °F - 66.2 °F 78% 30.12 in 10.0 mi ENE 13.8 mph 21.9 mph N/A   Mostly Cloudy
9:35 AM 75.2 °F - 68.0 °F 78% 30.12 in 10.0 mi ENE 17.3 mph 24.2 mph N/A   Overcast
9:55 AM 75.2 °F - 68.0 °F 78% 30.12 in 10.0 mi ENE 15.0 mph 20.7 mph N/A   Overcast
10:15 AM 77.0 °F - 68.0 °F 74% 30.12 in 10.0 mi ENE 13.8 mph 21.9 mph N/A   Overcast
10:35 AM 78.8 °F - 68.0 °F 69% 30.11 in 10.0 mi ENE 19.6 mph 26.5 mph N/A   Overcast
10:55 AM 78.8 °F - 68.0 °F 69% 30.11 in 10.0 mi ENE 17.3 mph 24.2 mph N/A   Overcast
11:15 AM 78.8 °F - 68.0 °F 69% 30.10 in 10.0 mi East 18.4 mph 27.6 mph N/A   Mostly Cloudy
11:35 AM 80.6 °F 83.2 °F 68.0 °F 65% 30.09 in 10.0 mi East 15.0 mph 25.3 mph N/A   Mostly Cloudy
11:55 AM 80.6 °F 83.2 °F 68.0 °F 65% 30.08 in 10.0 mi ENE 13.8 mph 19.6 mph N/A   Overcast
12:15 PM 82.4 °F 85.4 °F 68.0 °F 62% 30.07 in 10.0 mi East 15.0 mph 21.9 mph N/A   Mostly Cloudy
12:35 PM 82.4 °F 85.4 °F 68.0 °F 62% 30.07 in 10.0 mi East 17.3 mph 26.5 mph N/A   Overcast
12:55 PM 82.4 °F 85.4 °F 68.0 °F 62% 30.07 in 10.0 mi East 19.6 mph 28.8 mph N/A   Overcast
1:15 PM 82.4 °F 84.6 °F 66.2 °F 58% 30.06 in 10.0 mi ENE 17.3 mph 23.0 mph N/A   Overcast
1:35 PM 82.4 °F 85.4 °F 68.0 °F 62% 30.05 in 10.0 mi ENE 17.3 mph 24.2 mph N/A   Mostly Cloudy
1:55 PM 82.4 °F 84.6 °F 66.2 °F 58% 30.05 in 10.0 mi ENE 18.4 mph 26.5 mph N/A   Scattered Clouds
2:15 PM 84.2 °F 86.6 °F 66.2 °F 55% 30.05 in 10.0 mi ENE 17.3 mph 21.9 mph N/A   Partly Cloudy
2:35 PM 84.2 °F 86.6 °F 66.2 °F 55% 30.04 in 10.0 mi East 16.1 mph 20.7 mph N/A   Partly Cloudy
2:55 PM 82.4 °F 84.6 °F 66.2 °F 58% 30.04 in 10.0 mi East 18.4 mph 26.5 mph N/A   Mostly Cloudy
3:15 PM 82.4 °F 84.6 °F 66.2 °F 58% 30.04 in 10.0 mi ENE 13.8 mph - N/A   Mostly Cloudy
3:35 PM 80.6 °F 82.7 °F 66.2 °F 61% 30.04 in 10.0 mi ENE 18.4 mph 24.2 mph N/A   Overcast
3:55 PM 80.6 °F 83.2 °F 68.0 °F 65% 30.04 in 10.0 mi ENE 15.0 mph 24.2 mph N/A   Mostly Cloudy
4:15 PM 80.6 °F 83.2 °F 68.0 °F 65% 30.04 in 10.0 mi ENE 11.5 mph 18.4 mph N/A   Mostly Cloudy
4:35 PM 80.6 °F 83.2 °F 68.0 °F 65% 30.04 in 10.0 mi ENE 17.3 mph - N/A   Scattered Clouds
4:55 PM 80.6 °F 82.7 °F 66.2 °F 61% 30.05 in 10.0 mi ENE 15.0 mph 21.9 mph N/A   Mostly Cloudy
5:15 PM 80.6 °F 82.7 °F 66.2 °F 61% 30.05 in 10.0 mi East 11.5 mph 17.3 mph N/A   Mostly Cloudy
5:35 PM 78.8 °F - 66.2 °F 65% 30.06 in 10.0 mi ENE 8.1 mph - N/A   Mostly Cloudy
5:55 PM 77.0 °F - 66.2 °F 69% 30.06 in 10.0 mi East 10.4 mph - N/A   Mostly Cloudy
6:15 PM 77.0 °F - 66.2 °F 69% 30.06 in 10.0 mi East 10.4 mph - N/A   Overcast
6:35 PM 77.0 °F - 68.0 °F 74% 30.07 in 10.0 mi East 10.4 mph - N/A   Overcast
6:55 PM 77.0 °F - 68.0 °F 74% 30.07 in 10.0 mi East 8.1 mph - N/A   Overcast
7:15 PM 75.2 °F - 68.0 °F 78% 30.08 in 10.0 mi ENE 10.4 mph - N/A   Overcast
7:35 PM 75.2 °F - 68.0 °F 78% 30.08 in 10.0 mi East 9.2 mph - N/A   Overcast
7:55 PM 75.2 °F - 68.0 °F 78% 30.09 in 10.0 mi East 9.2 mph - N/A   Overcast
8:15 PM 75.2 °F - 68.0 °F 78% 30.09 in 10.0 mi ENE 9.2 mph - N/A   Overcast
8:35 PM 75.2 °F - 68.0 °F 78% 30.09 in 10.0 mi East 10.4 mph - N/A   Overcast
8:55 PM 75.2 °F - 68.0 °F 78% 30.10 in 10.0 mi ENE 10.4 mph - N/A   Overcast
9:15 PM 75.2 °F - 68.0 °F 78% 30.10 in 10.0 mi ENE 10.4 mph - N/A   Overcast
9:35 PM 75.2 °F - 68.0 °F 78% 30.10 in 10.0 mi ENE 11.5 mph - N/A   Overcast
9:55 PM 73.4 °F - 68.0 °F 83% 30.10 in 10.0 mi NE 11.5 mph - N/A   Overcast
10:15 PM 73.4 °F - 68.0 °F 83% 30.11 in 10.0 mi NE 12.7 mph 17.3 mph N/A   Overcast
10:35 PM 73.4 °F - 68.0 °F 83% 30.11 in 10.0 mi ENE 12.7 mph - N/A   Overcast
10:55 PM 73.4 °F - 68.0 °F 83% 30.10 in 10.0 mi NE 10.4 mph 16.1 mph N/A   Overcast
11:15 PM 71.6 °F - 68.0 °F 88% 30.10 in 10.0 mi ENE 13.8 mph - N/A   Overcast
11:35 PM 71.6 °F - 68.0 °F 88% 30.10 in 10.0 mi ENE 10.4 mph - N/A   Mostly Cloudy
11:55 PM 71.6 °F - 68.0 °F 88% 30.09 in 10.0 mi ENE 12.7 mph - N/A   Mostly Cloudy